{"data":{"norad_id":62729,"intl_designator":"2025-013A","name":"2025-013A","alt_names":[],"object_type":"PAYLOAD","status":"ACTIVE","operator":null,"country":"PRC","launch_date":"2025-01-20","launch_site_code":"JSC","launch_vehicle":null,"mission":null,"orbit_class":"UNKNOWN","rcs_meters":null,"size_class":null,"mass_kg":null,"dimensions":null,"purposes":[],"wikipedia_slug":null,"has_3d_model":false,"image_url":null,"decayed_at":null,"tle_current":{"epoch":"2026-09-22T23:11:00.448224Z","epoch_age_seconds":106550,"freshness":"FRESH","line1":"1 62729U 25013A   26265.96597741  .00026847  00000+0  66046-3 0  9997","line2":"2 62729  97.6389  88.5634 0007361 306.8048  53.2522 15.40571954 92988","mean_motion":15.40571954,"eccentricity":0.0007361,"inclination_deg":97.6389,"raan_deg":88.5634,"arg_perigee_deg":306.8048,"mean_anomaly_deg":53.2522,"bstar":0.00066046,"rev_number":9298,"period_min":93.471778209458,"perigee_km":439.39807895273,"apogee_km":449.44224760851,"semimajor_km":6822.5571632806,"source":"CELESTRAK","updated_at":"2026-09-23T09:00:21.591446Z"}}}